Theta_e
313 319 323 327 328 328 334 334 333 329 329 328 327 330 326 321 331 325 328 332 332 327 329 330 333 334 335 336 336 336 335 327 318
307 312 317 319 323 329 331 334 333 332 331 331 329 330 329 326 325 321 323 331 331 330 328 329 329 332 335 335 337 337 335 332 320
308 310 320 320 325 331 332 331 332 332 331 329 330 329 329 329 325 324 321 323 331 332 331 330 329 328 332 334 335 336 336 334 325
309 318 326 325 327 328 330 331 331 332 331 329 328 330 331 334 330 323 327 321 328 331 332 333 332 330 328 331 334 335 336 336 328
309 309 312 313 323 327 329 329 330 330 330 329 328 327 330 332 329 328 323 326 328 331 332 332 333 333 331 329 331 333 335 336 335
310 310 310 310 311 313 317 324 328 330 330 329 329 327 330 331 331 329 327 326 331 332 332 332 333 332 332 331 330 331 334 336 336
310 311 311 312 312 312 311 311 320 328 329 329 329 329 328 328 329 330 329 328 327 330 332 332 332 331 331 331 331 330 330 332 335
312 312 312 311 311 312 315 319 323 326 327 327 328 329 329 328 328 327 327 327 328 328 329 330 330 330 331 332 332 331 332 330 331
312 312 313 315 315 317 319 320 321 322 322 324 325 326 327 327 328 327 327 326 326 327 328 329 329 330 330 331 330 328 327 327 324
313 313 313 313 314 315 316 317 319 320 319 323 324 325 327 328 329 328 326 326 326 327 328 328 328 328 328 328 325 325 321 323 323
312 312 312 312 312 313 313 314 314 315 316 319 320 321 324 325 325 324 326 326 326 326 327 327 327 327 327 327 326 323 323 324 321
308 306 305 304 304 304 305 306 309 312 313 314 315 317 318 319 321 324 324 323 324 324 324 325 326 326 327 327 325 323 322 320 320
304 304 304 304 304 303 303 303 303 304 305 307 310 312 314 315 316 316 317 320 320 322 322 323 323 325 325 325 324 321 321 320 317
303 303 304 303 303 303 303 303 303 304 304 305 305 306 307 309 310 312 313 315 316 317 318 321 321 322 323 324 324 323 323 323 322
303 303 303 303 303 303 303 303 303 303 304 304 304 305 306 306 307 308 309 311 312 313 315 316 317 319 321 321 321 321 321 321 321
302 302 302 303 303 303 303 303 302 303 302 304 304 305 306 306 306 306 308 308 309 311 312 312 313 314 315 317 317 318 320 321 321
301 301 302 302 303 303 303 302 302 302 302 302 305 309 307 305 305 305 305 307 308 308 309 310 311 311 312 313 316 318 319 320 321
300 301 301 302 302 303 303 302 302 302 302 302 302 305 306 303 303 301 300 302 304 306 306 308 308 309 311 311 312 313 314 315 316
299 300 300 301 301 302 302 302 302 302 302 302 301 300 299 303 303 302 298 298 298 298 299 300 303 306 307 309 311 313 313 311 312
298 298 299 299 300 301 301 301 301 301 301 301 300 300 299 298 299 301 300 297 296 296 297 297 298 299 301 304 306 309 312 309 308
Wind_Speed
15 14 14 13 12 11 8 7 8 7 5 5 5 5 4 3 3 4 4 4 5 6 5 6 7 9 10 10 12 11 9 8 9
11 13 13 13 12 10 10 9 8 6 6 6 6 6 5 3 4 5 6 6 7 7 7 7 8 9 11 11 12 13 12 11 10
10 10 7 9 9 7 8 9 8 8 8 7 7 7 6 4 5 5 6 7 8 9 8 8 9 10 11 12 13 15 15 14 12
11 9 7 8 9 8 8 8 9 10 8 8 8 7 6 2 5 5 4 7 9 10 9 10 10 11 12 13 14 15 17 16 14
6 9 10 9 9 8 8 9 11 10 9 9 8 7 5 3 5 5 6 6 8 9 11 10 10 10 11 14 15 15 16 19 17
4 4 4 5 7 10 12 13 9 11 8 8 7 4 1 2 4 5 6 6 8 10 9 9 10 10 12 17 18 14 16 19 21
3 3 3 3 4 6 8 9 11 10 9 8 6 3 2 1 2 6 6 7 8 10 11 12 10 11 12 14 18 19 18 18 23
6 4 2 1 2 2 3 4 6 7 6 8 8 7 6 5 4 7 6 6 7 9 10 10 11 9 9 9 9 13 17 26 23
7 6 5 5 5 4 3 3 4 4 6 7 7 9 9 7 7 10 7 7 7 7 9 9 9 8 9 8 8 7 12 5 22
9 8 7 6 5 3 2 2 2 3 3 5 6 6 5 6 7 9 9 8 6 4 5 6 5 4 5 7 7 8 14 20 26
8 8 7 7 6 5 4 2 2 3 4 3 2 2 4 5 5 5 5 6 6 7 3 5 4 4 5 7 5 6 16 18 24
9 9 9 9 9 8 6 4 3 2 2 3 4 4 4 4 4 4 3 4 3 4 6 8 4 3 3 5 8 13 14 11 16
9 9 7 7 7 7 6 5 4 4 3 2 1 1 3 4 5 4 3 2 4 5 5 7 9 12 8 8 11 11 10 10 10
8 7 7 7 7 6 6 5 6 6 6 6 6 5 4 2 3 4 3 3 2 4 6 9 10 8 5 7 6 6 8 12 15
9 7 7 6 6 5 5 4 4 5 6 5 5 5 4 4 4 4 4 4 3 3 5 6 8 10 9 9 12 12 13 14 18
9 8 7 6 5 4 3 3 3 2 2 3 3 2 2 2 3 4 4 4 2 1 2 3 4 7 11 10 7 6 6 7 12
10 8 7 6 6 5 3 3 1 1 2 2 2 2 3 3 3 3 4 3 4 3 3 2 3 5 7 9 5 2 2 2 10
11 10 9 8 6 5 4 3 2 0 1 1 2 2 2 1 4 4 4 3 4 5 6 6 5 4 4 5 7 9 10 8 6
14 13 11 9 8 7 5 3 1 1 2 3 3 4 6 2 2 3 5 6 6 5 6 6 8 8 7 6 7 4 4 4 5
15 14 12 11 10 8 6 4 3 2 3 4 5 5 5 5 3 4 3 7 8 8 7 7 7 6 7 9 10 10 12 6 5
Wind_Direction
235 240 246 248 252 256 251 256 252 249 258 261 262 260 274 277 273 262 266 230 229 218 212 223 221 221 220 222 218 213 216 214 208
229 230 235 237 232 234 236 239 247 250 253 260 263 267 276 269 272 263 256 242 233 230 222 234 232 234 231 231 234 230 224 226 222
206 219 221 235 232 229 239 237 236 250 258 265 272 272 274 286 275 270 264 251 239 239 244 242 244 242 241 237 239 239 234 231 226
201 195 184 199 199 209 231 245 226 242 245 257 263 272 277 284 276 279 281 259 247 252 250 261 251 253 253 248 240 241 242 233 238
216 219 219 220 204 199 209 222 221 235 244 250 256 267 286 298 292 290 284 272 258 256 258 266 261 262 257 252 247 243 244 241 249
217 220 229 237 235 240 240 241 236 234 243 249 253 264 282 314 316 309 298 288 271 260 270 273 270 267 267 262 255 252 250 248 252
146 169 196 225 243 249 256 251 232 230 224 239 244 244 258 306 311 298 294 287 273 274 273 274 277 282 277 278 262 249 257 262 263
102 110 120 181 235 250 232 215 214 208 210 229 240 242 242 245 275 280 285 299 286 279 277 279 277 275 278 275 269 259 272 255 263
100 101 102 99 102 114 131 173 200 216 229 226 237 246 249 247 239 252 264 277 290 293 287 284 273 267 263 256 270 328 287 333 332
104 101 97 102 113 116 128 157 178 200 224 212 221 234 233 240 241 249 260 261 261 271 282 283 287 260 255 243 269 281 322 305 303
118 112 105 97 97 98 102 133 200 223 233 244 249 253 229 239 240 253 264 272 262 254 263 274 287 277 259 242 219 286 303 306 308
119 111 105 102 97 92 89 95 121 161 198 238 242 242 247 261 259 260 265 269 298 299 293 265 264 223 208 210 253 292 299 307 302
129 122 116 106 93 87 85 84 82 88 97 98 107 290 271 267 268 276 277 262 265 263 287 282 265 247 229 252 274 283 290 288 289
146 140 133 120 108 98 93 88 93 89 90 87 82 77 64 39 352 332 323 293 302 288 271 258 265 271 244 221 250 294 301 292 280
165 160 150 137 124 115 99 87 89 96 91 81 73 68 58 47 38 30 25 13 358 336 287 275 270 266 284 289 287 285 290 289 294
180 175 166 155 141 137 124 103 79 76 82 71 35 44 46 21 5 2 11 357 341 338 296 304 298 299 290 289 305 327 299 328 337
195 189 186 178 170 157 143 139 129 63 59 138 163 225 316 297 285 291 297 291 296 302 309 297 275 290 281 299 331 299 254 8 29
208 205 202 199 193 183 175 175 168 141 3 5 180 266 260 297 312 310 309 302 290 290 293 286 283 278 273 269 274 274 268 5 328
217 215 213 212 211 206 200 209 226 305 319 315 293 254 253 264 255 302 297 300 311 307 297 291 285 278 273 264 250 229 208 48 13
219 221 221 222 223 224 223 229 242 258 284 299 301 293 283 271 252 279 297 318 305 302 296 292 289 284 275 268 262 248 248 269 13